Regional Weather Roundup
Issued by NWS

Home | Current Version | Previous Version | Graphics & Text | Print | Product List | Glossary On
Versions: 1 2 3 4 5 6 7 8 9 10 11 12 13 14 15 16 17 18 19 20 21 22 23 24 25 26 27 28 29 30 31 32 33 34 35 36 37 38 39 40 41 42 43 44 45 46 47 48 49 50
000
ASUS43 KLMK 262210
RWRKY
KENTUCKY REGIONAL WEATHER ROUNDUP
NATIONAL WEATHER SERVICE LOUISVILLE KY
600 PM EDT THU MAY 26 2016

NOTE "FAIR" INDICATES FEW OR NO CLOUDS BELOW 12,000 FEET
WITH NO SIGNIFICANT WEATHER AND/OR OBSTRUCTIONS TO VISIBILITY.

KYZ001>023-026-027-061>063-070>075-262300-
WESTERN AND SOUTH CENTRAL KENTUCKY

CITY           SKY/WX    TMP DP  RH WIND       PRES   REMARKS
PADUCAH        RAIN      67  64  90 E9        30.00F FOG
HENDERSON      CLOUDY    70  63  78 S18       29.98F
OWENSBORO      CLOUDY    71  67  87 S18       30.00F
HOPKINSVILLE   TSTM      66  64  94 N9G20     30.08R
BOWLING GREEN  TSTM      67  65  93 E7        30.08S
GLASGOW        RAIN      65  65 100 CALM      30.08F
$$

KYZ024-025-028>034-038-045-046-053-262300-
NORTH CENTRAL KENTUCKY

CITY           SKY/WX    TMP DP  RH WIND       PRES   REMARKS
LOUISVILLE/SDF CLOUDY    69  64  84 SE8       30.00R
LOUISVILLE/LOU CLOUDY    68  64  87 CALM      30.02R
FORT KNOX      CLOUDY    67  64  89 SE7       30.01R
$$

KYZ035>037-039>044-047>052-055>060-089>105-262300-
NORTHEAST KENTUCKY

CITY           SKY/WX    TMP DP  RH WIND       PRES   REMARKS
LEXINGTON      LGT RAIN  67  65  93 S8        30.06F
COVINGTON      CLOUDY    70  67  90 S8        30.02R
FRANKFORT      LGT RAIN  68  64  87 S10       30.02F
$$

KYZ054-064>069-076>088-106>120-262300-
SOUTHEAST KENTUCKY

CITY           SKY/WX    TMP DP  RH WIND       PRES   REMARKS
JACKSON        SUNNY     76  63  64 VRB6      30.09F
LONDON         PTSUNNY   79  63  57 SW10G21   30.11R
SOMERSET       TSTM      64  63  94 CALM      30.15R
MIDDLESBORO    SUNNY     79  64  60 SE3       30.11F
MONTICELLO     LGT RAIN  66  64  94 N10       30.15F
$$





USA.gov is the U.S. government's official web portal to all federal, state and local government web resources and services.